West Memphis, AR

4:38 AM CDT on August 18, 2019 (GMT -0500)
West Memphis Municipal

Weather History for KAWM - July, 2019

Change the Weather History Date:

Tuesday, July 16, 2019

  Actual Average Record
Temperature  
Mean Temperature 78 °F -  
Max Temperature 82 °F 92 °F 103 °F (1980)
Min Temperature 73 °F 71 °F 60 °F (1967)
Cooling Degree Days 12    
Growing Degree Days 28 (Base 50)    
Moisture  
Dew Point 75 °F    
Average Humidity 95    
Maximum Humidity 100    
Minimum Humidity 79    
Precipitation  
Precipitation 1.23 in - - ()
Sea Level Pressure  
Sea Level Pressure 29.96 in    
Wind  
Wind Speed 8 mph (SSW)    
Max Wind Speed 15 mph    
Max Gust Speed 29 mph    
Visibility 7 miles    
Events Fog , Rain , Thunderstorm    
Averages and records for this station are not official NWS values.
T = Trace of Precipitation, MM = Missing Value Source: NWS Daily Summary

Daily Weather History Graph

Daily Weather History Graph

Search for Another Location

Airport or City:

Astronomy

Jul. 16, 2019 Rise Set
Actual Time 5:58 AM CDT 8:15 PM CDT
Civil Twilight 5:29 AM CDT 8:44 PM CDT
Nautical Twilight 4:53 AM CDT 9:19 PM CDT
Astronomical Twilight 4:15 AM CDT 9:58 PM CDT
Moon 8:21 PM CDT (7/16) 5:37 AM CDT (7/16)
Length of Visible Light 15h 14m
Length of Day
14h 16m
Full, 100% of the Moon is Illuminated
Jul 16
Full
Jul 16
Full
Jul 24
Last Quarter
Jul 31
New
Aug 7
First Quarter

Hourly Weather History & Observations

Time (CDT) Temp. Heat Index Dew Point Humidity Pressure Visibility Wind Dir Wind Speed Gust Speed Precip Events Conditions
12:13 AM 75.9 °F - 75.0 °F 97% 29.95 in 10.0 mi Variable 4.6 mph - N/A   Overcast
12:39 AM 75.9 °F - 73.9 °F 94% 29.94 in 10.0 mi South 10.4 mph - N/A   Scattered Clouds
12:53 AM 75.9 °F - 75.0 °F 97% 29.94 in 10.0 mi South 8.1 mph - N/A   Partly Cloudy
1:53 AM 75.0 °F - 73.0 °F 94% 29.93 in 10.0 mi South 6.9 mph - 0.05 in   Overcast
2:15 AM 75.0 °F - 73.9 °F 96% 29.93 in 10.0 mi South 8.1 mph - N/A   Overcast
2:26 AM 75.0 °F - 73.9 °F 96% 29.93 in 10.0 mi South 8.1 mph - N/A   Overcast
2:53 AM 75.0 °F - 75.0 °F 100% 29.91 in 10.0 mi SSE 8.1 mph - N/A   Overcast
3:35 AM 77.0 °F - 75.9 °F 96% 29.91 in 9.0 mi South 9.2 mph - N/A   Overcast
3:50 AM 77.0 °F - 75.2 °F 94% 29.92 in 9.0 mi South 12.7 mph - N/A   Overcast
3:53 AM 77.0 °F - 75.9 °F 96% 29.91 in 9.0 mi South 9.2 mph - N/A   Overcast
4:04 AM 77.0 °F - 75.9 °F 96% 29.92 in 9.0 mi South 12.7 mph - N/A   Overcast
4:46 AM 78.1 °F - 75.9 °F 93% 29.92 in 9.0 mi South 12.7 mph - N/A   Overcast
4:53 AM 78.1 °F - 75.9 °F 93% 29.91 in 9.0 mi South 13.8 mph - N/A   Overcast
5:45 AM 78.1 °F - 77.0 °F 96% 29.94 in 10.0 mi South 9.2 mph - N/A   Overcast
5:53 AM 78.1 °F - 77.0 °F 96% 29.92 in 9.0 mi SSW 10.4 mph - N/A   Overcast
6:08 AM 78.1 °F - 77.0 °F 96% 29.94 in 9.0 mi South 9.2 mph - N/A   Overcast
6:53 AM 78.1 °F - 77.0 °F 96% 29.92 in 5.0 mi SSW 9.2 mph - 0.01 in Rain Light Rain
7:01 AM 78.1 °F - 77.0 °F 96% 29.93 in 1.0 mi SSW 10.4 mph - 0.10 in Rain Rain
7:08 AM 78.1 °F - 77.0 °F 96% 29.94 in 1.0 mi SSW 6.9 mph - 0.17 in Rain Rain
7:42 AM 78.1 °F - 77.0 °F 96% 29.93 in 3.0 mi Variable 6.9 mph - 0.29 in Rain Light Rain
7:53 AM 77.0 °F - 77.0 °F 100% 29.92 in 4.0 mi SSW 8.1 mph 17.3 mph 0.30 in Rain Light Rain
8:12 AM 78.1 °F - 77.0 °F 96% 29.94 in 7.0 mi SSW 8.1 mph - 0.00 in   Overcast
8:21 AM 78.1 °F - 77.0 °F 96% 29.94 in 2.5 mi SSW 10.4 mph 17.3 mph 0.03 in Rain Rain
8:23 AM 78.1 °F - 77.0 °F 96% 29.94 in 1.5 mi SSW 11.5 mph 17.3 mph 0.07 in Rain Heavy Rain
8:31 AM 77.0 °F - 77.0 °F 100% 29.94 in 0.8 mi SW 8.1 mph 18.4 mph 0.22 in Rain Heavy Rain
8:35 AM 77.0 °F - 77.0 °F 100% 29.95 in 0.5 mi SW 15.0 mph 28.8 mph 0.31 in Fog , Rain Heavy Rain
8:44 AM 75.0 °F - 75.0 °F 100% 29.96 in 1.0 mi SW 12.7 mph 28.8 mph 0.42 in Rain Heavy Rain
8:51 AM 73.4 °F - 73.4 °F 100% 29.96 in 3.0 mi SW 9.2 mph 18.4 mph 0.42 in Rain Light Rain
8:53 AM 73.9 °F - 73.9 °F 100% 29.95 in 5.0 mi SSW 9.2 mph 18.4 mph 0.42 in Rain Light Rain
9:01 AM 73.0 °F - 73.0 °F 100% 29.96 in 5.0 mi SW 8.1 mph - 0.02 in Rain Light Rain
9:12 AM 73.9 °F - 73.9 °F 100% 29.96 in 2.0 mi SSW 5.8 mph - 0.06 in Rain , Thunderstorm Rain
9:22 AM 73.9 °F - 73.9 °F 100% 29.97 in 4.0 mi SSW 6.9 mph - 0.08 in Rain , Thunderstorm Light Rain
9:33 AM 73.9 °F - 73.9 °F 100% 29.98 in 4.0 mi SSW 8.1 mph - 0.11 in Rain Rain
9:40 AM 73.9 °F - 73.9 °F 100% 29.98 in 4.0 mi SSW 6.9 mph - 0.12 in Rain Light Rain
9:49 AM 73.4 °F - 73.4 °F 100% 29.98 in 8.0 mi SSW 8.1 mph - 0.12 in Rain Light Rain
9:53 AM 73.9 °F - 73.9 °F 100% 29.98 in 10.0 mi SSW 6.9 mph - 0.12 in Rain Light Rain
10:00 AM 73.9 °F - 73.9 °F 100% 29.99 in 10.0 mi SSW 6.9 mph - 0.00 in   Overcast
10:07 AM 73.9 °F - 73.9 °F 100% 30.00 in 1.5 mi SSW 6.9 mph - 0.07 in Rain Rain
10:19 AM 73.9 °F - 73.9 °F 100% 29.99 in 3.0 mi South 6.9 mph - 0.10 in Rain Light Rain
10:26 AM 73.9 °F - 73.9 °F 100% 29.99 in 8.0 mi South 6.9 mph - 0.10 in Rain Light Rain
10:50 AM 73.4 °F - 73.4 °F 100% 30.00 in 1.8 mi South 8.1 mph - 0.20 in Rain Heavy Rain
10:53 AM 73.9 °F - 73.9 °F 100% 29.99 in 1.5 mi South 9.2 mph - 0.21 in Rain Heavy Rain
11:01 AM 73.9 °F - 73.9 °F 100% 29.99 in 3.0 mi South 5.8 mph - 0.02 in Rain Light Rain
11:16 AM 73.9 °F - 73.9 °F 100% 30.00 in 7.0 mi South 6.9 mph - 0.04 in Rain , Thunderstorm Light Rain
11:31 AM 73.9 °F - 73.9 °F 100% 29.99 in 7.0 mi South 6.9 mph - 0.05 in Rain Light Rain
11:53 AM 75.0 °F - - N/A% 29.98 in 3.0 mi SW 3.5 mph - 0.09 in Rain Rain
12:00 PM 73.9 °F - - N/A% 30.00 in 2.0 mi South 6.9 mph - 0.01 in Rain Light Rain
12:09 PM 75.0 °F - 75.0 °F 100% 30.00 in 3.0 mi Variable 4.6 mph - 0.02 in Rain Light Rain
12:21 PM 75.0 °F - 75.0 °F 100% 30.00 in 10.0 mi SW 4.6 mph - 0.03 in Rain Light Rain
12:43 PM 75.0 °F - 75.0 °F 100% 30.01 in 5.0 mi SW 9.2 mph - 0.03 in Rain Light Rain
12:53 PM 75.0 °F - 75.0 °F 100% 30.00 in 6.0 mi SSW 6.9 mph - 0.03 in Rain Light Rain
1:15 PM 75.9 °F - 75.9 °F 100% 30.00 in 10.0 mi SSW 6.9 mph - 0.00 in   Mostly Cloudy
1:53 PM 77.0 °F - 75.9 °F 96% 29.98 in 10.0 mi SSW 8.1 mph - 0.00 in   Mostly Cloudy
2:13 PM 78.1 °F - 75.0 °F 90% 29.98 in 10.0 mi SW 9.2 mph - N/A   Mostly Cloudy
2:41 PM 79.0 °F - 73.9 °F 84% 29.98 in 10.0 mi WSW 10.4 mph 17.3 mph N/A   Mostly Cloudy
2:53 PM 79.0 °F - 75.0 °F 88% 29.96 in 10.0 mi SW 8.1 mph - N/A   Mostly Cloudy
3:07 PM 80.1 °F 85.1 °F 75.0 °F 85% 29.97 in 10.0 mi SW 8.1 mph - N/A   Overcast
3:53 PM 81.0 °F 87.3 °F 75.9 °F 85% 29.95 in 10.0 mi SSW 9.2 mph - N/A   Overcast
4:24 PM 82.0 °F 88.6 °F 75.0 °F 79% 29.96 in 10.0 mi SW 9.2 mph 17.3 mph N/A   Overcast
4:53 PM 81.0 °F 86.7 °F 75.0 °F 82% 29.94 in 10.0 mi SSW 8.1 mph - N/A   Overcast
5:22 PM 81.0 °F 86.7 °F 75.0 °F 82% 29.95 in 10.0 mi SSW 8.1 mph - N/A   Overcast
5:53 PM 82.0 °F 89.4 °F 75.9 °F 82% 29.92 in 10.0 mi SSW 8.1 mph 18.4 mph N/A   Overcast
6:08 PM 82.0 °F 89.4 °F 75.9 °F 82% 29.94 in 10.0 mi Variable 6.9 mph 16.1 mph N/A   Scattered Clouds
6:53 PM 81.0 °F 87.3 °F 75.9 °F 85% 29.94 in 10.0 mi SW 4.6 mph - N/A   Scattered Clouds
7:53 PM 80.1 °F 85.4 °F 75.9 °F 87% 29.94 in 10.0 mi SSW 5.8 mph - N/A   Mostly Cloudy
8:53 PM 79.0 °F - 77.0 °F 94% 29.94 in 10.0 mi South 3.5 mph - N/A   Scattered Clouds
9:18 PM 79.0 °F - 77.0 °F 94% 29.97 in 9.0 mi South 5.8 mph - N/A   Mostly Cloudy
9:53 PM 80.1 °F 85.8 °F 77.0 °F 90% 29.97 in 10.0 mi South 5.8 mph - N/A   Overcast
10:10 PM 79.0 °F - 78.1 °F 97% 29.98 in 9.0 mi South 10.4 mph - 0.00 in Rain Light Rain
10:24 PM 79.0 °F - 77.0 °F 94% 29.98 in 10.0 mi South 6.9 mph - 0.00 in   Overcast
10:53 PM 78.1 °F - 77.0 °F 96% 29.97 in 10.0 mi South 8.1 mph - 0.00 in   Overcast
11:53 PM 77.0 °F - 75.9 °F 96% 29.97 in 10.0 mi South 9.2 mph - N/A   Mostly Cloudy